Погода в Кирово

Россия / Республика Северная Осетия — Алания     43°10′20″N   44°24′35″E
темп.,
°C
ветер,
м/с
пор.,
м/с
влажн.,
%
обл.,
%
осадки,
мм/ч
давл.,
гПа
погр.,
м
10 апреля, сб
сб1000:00+5сз2286100 1.7 1018392
03:00+5сз2384100 1.7 1019414
06:00+5сз2382100 0.0 1019355
09:00+6сз1175100 0.0 1018487
12:00+9ссз2165100 0.0 1018831
15:00+10с3267100 0.0 1018874
18:00+8с3376100 0.0 1019493
21:00+7с2279100 0.0 1020273
11 апреля, вс
вс1100:00+7ссв1181100 0.0 1019254
03:00+6ссв2286100 0.2 1019117
06:00+6ссв238797 0.0 1019297
09:00+8всв1279100 0.0 1018623
12:00+11св2267100 0.0 1016967
15:00+11ссв336999 0.0 1016701
18:00+11сз2272100 0.0 1016141
21:00+8зсз2287100 0.0 101723
12 апреля, пн
пн1200:00+7с1190100 0.0 101610
03:00+7з0090100 0.0 101610
06:00+7з1189100 0.0 101711
09:00+12зсз2368100 0.0 1018558
12:00+14ссз3361100 0.0 10181322
15:00+13ссз447298 0.1 1019825
18:00+10сз3388100 0.3 1021315
21:00+8зсз2389100 0.6 1022246
13 апреля, вт
вт1300:00+8ююв0186100 0.1 1022125
03:00+8юз1190100 0.6 1021125
06:00+7зсз129639 3.3 102095
09:00+12сз117575 3.3 1019652
12:00+12сз227597 0.2 1019620
15:00+13ссв227297 0.3 1019702
18:00+12ссз2481100 0.3 1020278
21:00+9ссз3789100 1.7 1022490
14 апреля, ср
ср1400:00+8з3595100 8.8 1021324
03:00+8зюз2495100 11.3 1020247
06:00+8з2394100 2.0 1020193
09:00+11зсз227321 2.0 1019673
12:00+14сз326385 0.0 10181146
15:00+14с326165 0.0 10171061
18:00+14всв226830 0.0 1017100
21:00+10всв227868 0.0 101917